Weather in Kodiak

United States     57°48′03″N   152°23′04″W
temp.,
°C
wind,
m/s
gust,
m/s
humid.,
%
clouds,
%
prec.,
mm/h
press.,
hPa
HPBL,
m
24 may, tue
tue2401:00+6sse2295100 0.1 101491
04:00+6s339389 0.1 1014103
07:00+5ssw2392100 0.0 101490
10:00+7sse227983 0.0 1014446
13:00+8se337699 0.3 1015558
16:00+8se237796 0.7 1015684
19:00+8ese128198 0.4 1015150
22:00+7nnw118492 1.5 1015129
25 may, wed
wed2501:00+7w118593 0.3 101631
04:00+6nw118770 0.3 101619
07:00+6nw11876 0.0 101624
10:00+8ne11748 0.0 1017470
13:00+9e226838 0.1 1017766
16:00+10se216658 0.3 1016758
19:00+10s226628 0.1 1016680
22:00+9ssw23755 0.1 101649
26 may, thu
thu2601:00+7wsw22835 0.0 101625
04:00+6wsw11825 0.0 101513
07:00+7wsw11775 0.0 101513
10:00+10ene01605 0.0 1014340
13:00+12e22565 0.0 1014939
16:00+13ese22555 0.0 10131005
19:00+13se12555 0.0 1012899
22:00+11sw116629 0.0 101227
27 may, fri
fri2701:00+9wsw22715 0.0 101114
04:00+9w117028 0.0 101110
07:00+10wsw116789 0.0 101110
10:00+13ssw015550 0.0 1011296
13:00+15e21514 0.0 1011905
16:00+16ese22508 0.0 10111064
19:00+15sse115313 0.1 1011892
22:00+12nnw22715 0.1 101375
28 may, sat
sat2801:00+10nw11805 0.0 101415
04:00+9wnw11844 0.0 101411
07:00+9nw11845 0.0 101522
10:00+12ne11715 0.0 1015395
13:00+13ene216618 0.1 1016771
16:00+13ne116747 0.3 1016609
19:00+13ne116448 0.1 1016570
22:00+11nne127046 0.1 1016152